FW5790 Weather Reports


Display with metric or nautical units.
time (UTC)temp
F
wind
direction
speed
MPH
gust
MPH
rain 1hr
in
rain 24hr
in
rain mn
in
humidity
%
barometer
mb
20240715000042 84 0 0.0 0.0 0.00 0.00 0.00 76 1018.0
20240714234538 84 0 0.0 0.0 0.00 0.01 0.00 74 1018.1
20240714233044 85 0 0.0 0.0 0.00 0.01 0.00 75 1018.0
20240714231546 86 0 0.0 0.0 0.00 0.01 0.00 74 1018.0
20240714230102 86 0 0.0 0.0 0.00 0.01 0.00 75 1018.0
20240714224540 86 0 0.0 0.0 0.00 0.01 0.00 73 1018.0
20240714223043 86 0 0.0 0.0 0.00 0.01 0.00 74 1017.9
20240714221544 87 0 0.0 0.0 0.00 0.01 0.00 73 1018.0
20240714220053 87 0 0.0 3.0 0.00 0.01 0.00 71 1018.0
20240714214543 87 0 0.0 1.0 0.00 0.01 0.00 72 1018.2
20240714213105 87 0 0.0 1.0 0.00 0.01 0.00 70 1018.2
20240714211605 88 0 0.0 1.0 0.00 0.01 0.00 69 1018.3
20240714210047 88 84 0.0 1.0 0.00 0.01 0.00 68 1018.5
20240714204542 88 84 1.0 2.0 0.00 0.01 0.00 69 1018.7
20240714203051 87 0 0.0 2.0 0.00 0.01 0.00 71 1018.8
20240714201542 87 76 0.0 2.0 0.00 0.01 0.00 70 1018.8
20240714200046 88 100 0.0 2.0 0.00 0.01 0.00 70 1019.1
20240714194555 87 0 0.0 2.0 0.00 0.01 0.00 70 1019.3
20240714193043 88 94 1.0 2.0 0.00 0.01 0.00 69 1019.3
20240714191546 88 92 0.0 1.0 0.00 0.01 0.00 68 1019.2
20240714190059 88 91 0.0 2.0 0.00 0.01 0.00 70 1019.3
20240714184555 88 96 1.0 3.0 0.00 0.01 0.00 69 1019.6
20240714183115 88 106 1.0 2.0 0.00 0.01 0.00 69 1019.5
20240714181549 88 85 0.0 2.0 0.00 0.01 0.00 70 1019.7
20240714180049 88 75 0.0 3.0 0.00 0.01 0.00 71 1020.0
20240714174546 88 92 1.0 3.0 0.00 0.01 0.00 72 1020.2
20240714173050 87 68 1.0 2.0 0.00 0.01 0.00 74 1020.2
20240714171541 86 89 1.0 2.0 0.00 0.01 0.00 74 1020.5
20240714170044 86 0 0.0 2.0 0.00 0.01 0.00 73 1020.8
20240714164543 85 104 1.0 2.0 0.00 0.01 0.00 77 1020.8
20240714163049 85 88 1.0 2.0 0.00 0.01 0.00 76 1021.1
20240714161542 84 79 1.0 2.0 0.00 0.01 0.00 76 1021.1
20240714160046 83 96 1.0 3.0 0.00 0.01 0.00 77 1021.4
20240714154546 83 0 0.0 2.0 0.00 0.01 0.00 78 1021.3
20240714153051 83 91 0.0 2.0 0.00 0.01 0.00 78 1021.3
20240714151540 82 0 0.0 2.0 0.00 0.01 0.00 79 1021.5
20240714150042 81 110 0.0 1.0 0.00 0.01 0.00 79 1021.6
20240714144542 81 0 0.0 0.0 0.00 0.01 0.00 80 1021.5
20240714143042 80 0 0.0 1.0 0.00 0.01 0.00 81 1021.7
20240714141545 78 99 0.0 1.0 0.00 0.01 0.00 82 1021.8
20240714140056 77 99 0.0 1.0 0.00 0.01 0.00 82 1022.0
20240714134540 76 0 0.0 0.0 0.00 0.01 0.00 84 1021.9
20240714133044 75 0 0.0 0.0 0.00 0.01 0.00 85 1022.0
20240714131539 74 0 0.0 0.0 0.00 0.01 0.00 86 1022.1
20240714130049 73 0 0.0 0.0 0.00 0.01 0.00 87 1022.1
20240714124544 72 0 0.0 0.0 0.00 0.01 0.00 88 1021.8
20240714123059 72 0 0.0 0.0 0.00 0.01 0.00 89 1021.5
20240714121551 71 0 0.0 0.0 0.00 0.01 0.00 90 1021.4
20240714120057 70 0 0.0 0.0 0.00 0.01 0.00 90 1021.4
20240714114542 70 0 0.0 0.0 0.00 0.01 0.00 90 1021.4
20240714113043 69 0 0.0 0.0 0.00 0.01 0.00 90 1021.4
20240714111540 69 0 0.0 0.0 0.00 0.01 0.00 90 1021.4
20240714110041 69 0 0.0 0.0 0.00 0.01 0.00 90 1021.3
20240714104543 69 0 0.0 0.0 0.00 0.01 0.00 90 1021.4
20240714103038 69 0 0.0 0.0 0.00 0.01 0.00 90 1021.3
20240714101542 69 0 0.0 0.0 0.00 0.01 0.00 89 1021.4
20240714100045 69 0 0.0 0.0 0.00 0.01 0.00 89 1021.4
20240714094545 69 0 0.0 0.0 0.00 0.01 0.00 89 1021.1
20240714093043 69 0 0.0 0.0 0.00 0.01 0.00 89 1020.8
20240714091555 69 0 0.0 0.0 0.00 0.01 0.00 89 1020.8
20240714090102 69 0 0.0 0.0 0.00 0.01 0.00 89 1020.8
20240714084549 69 0 0.0 0.0 0.00 0.01 0.00 89 1020.7
20240714083037 69 0 0.0 0.0 0.00 0.01 0.00 89 1020.7
20240714081548 69 0 0.0 0.0 0.00 0.01 0.00 89 1020.6
20240714080040 70 0 0.0 0.0 0.00 0.01 0.00 89 1020.7
20240714074542 70 0 0.0 0.0 0.00 0.01 0.00 89 1020.6
20240714073036 70 0 0.0 0.0 0.00 0.01 0.00 89 1020.9
20240714071552 70 0 0.0 0.0 0.00 0.01 0.00 89 1021.1
20240714070050 70 0 0.0 0.0 0.00 0.01 0.00 89 1021.4
20240714064551 70 0 0.0 0.0 0.00 0.01 0.00 89 1021.5
20240714063045 71 0 0.0 0.0 0.00 0.01 0.00 89 1021.6
20240714061539 71 0 0.0 0.0 0.00 0.01 0.00 89 1021.6
20240714060044 71 0 0.0 0.0 0.00 0.01 0.00 89 1021.8
20240714054617 71 0 0.0 0.0 0.00 0.01 0.00 89 1022.0
20240714053038 71 0 0.0 0.0 0.00 0.01 0.00 89 1022.2
20240714051547 71 0 0.0 0.0 0.00 0.01 0.00 89 1022.3
20240714050047 71 0 0.0 0.0 0.00 0.01 0.00 88 1022.7
20240714044545 71 0 0.0 0.0 0.00 0.01 0.00 88 1022.7
20240714043102 71 0 0.0 0.0 0.00 0.01 0.00 88 1022.3
20240714041546 71 0 0.0 0.0 0.00 0.01 0.00 88 1022.3
20240714040047 71 0 0.0 0.0 0.00 0.01 0.00 88 1022.2
20240714034546 71 0 0.0 0.0 0.00 0.01 0.01 88 1022.1
20240714033044 72 0 0.0 0.0 0.00 0.01 0.01 88 1022.1
20240714031542 72 0 0.0 0.0 0.00 0.01 0.01 87 1022.1
20240714030045 72 0 0.0 0.0 0.00 0.01 0.01 87 1022.1
20240714024540 72 0 0.0 0.0 0.00 0.01 0.01 87 1022.0
20240714023048 72 0 0.0 0.0 0.00 0.01 0.01 87 1022.0
20240714021549 72 0 0.0 0.0 0.00 0.01 0.01 87 1022.0
20240714020052 72 0 0.0 0.0 0.00 0.01 0.01 86 1022.0
20240714014541 72 0 0.0 0.0 0.00 0.01 0.01 86 1021.8
20240714013053 72 0 0.0 0.0 0.00 0.01 0.01 86 1021.8
20240714011544 72 0 0.0 0.0 0.00 0.01 0.01 86 1022.0
20240714010050 73 0 0.0 0.0 0.00 0.01 0.01 85 1022.1
20240714004552 73 0 0.0 0.0 0.00 0.01 0.01 86 1022.0
20240714003051 73 0 0.0 0.0 0.01 0.01 0.01 86 1022.3
20240714001543 74 0 0.0 0.0 0.01 0.01 0.01 85 1022.3